| time (UTC) | temp F | wind direction | speed MPH | gust MPH | rain 1hr in | rain 24hr in | rain mn in | humidity % | barometer mb |
| 20260504194534 | 71 | 169 | 5.0 | 13.0 | 0.00 | 0.00 | 0.00 | 46 | 1003.2 |
| 20260504193029 | 71 | 179 | 3.0 | 15.0 | 0.00 | 0.00 | 0.00 | 46 | 1003.4 |
| 20260504191527 | 70 | 240 | 4.0 | 13.0 | 0.00 | 0.00 | 0.00 | 46 | 1003.7 |
| 20260504190023 | 70 | 194 | 5.0 | 17.0 | 0.00 | 0.00 | 0.00 | 47 | 1003.9 |
| 20260504184521 | 69 | 238 | 7.0 | 17.0 | 0.00 | 0.00 | 0.00 | 48 | 1004.0 |
| 20260504183017 | 68 | 247 | 5.0 | 16.0 | 0.00 | 0.00 | 0.00 | 51 | 1004.2 |
| 20260504181514 | 68 | 234 | 9.0 | 18.0 | 0.00 | 0.00 | 0.00 | 48 | 1004.5 |
| 20260504180011 | 67 | 229 | 7.0 | 19.0 | 0.00 | 0.00 | 0.00 | 51 | 1004.7 |
| 20260504174508 | 67 | 230 | 6.0 | 14.0 | 0.00 | 0.00 | 0.00 | 52 | 1005.0 |
| 20260504173008 | 66 | 204 | 4.0 | 16.0 | 0.00 | 0.00 | 0.00 | 53 | 1005.1 |
| 20260504171503 | 66 | 255 | 4.0 | 16.0 | 0.00 | 0.00 | 0.00 | 55 | 1005.3 |
| 20260504081512 | 47 | 212 | 5.0 | 13.0 | 0.00 | 0.00 | 0.00 | 77 | 1007.2 |
| 20260504060104 | 49 | 227 | 5.0 | 14.0 | 0.00 | 0.00 | 0.00 | 79 | 1008.5 |
| 20260504044544 | 50 | 227 | 7.0 | 18.0 | 0.00 | 0.00 | 0.00 | 72 | 1009.2 |
| 20260504043038 | 50 | 232 | 5.0 | 16.0 | 0.00 | 0.00 | 0.00 | 69 | 1009.1 |
| 20260504041533 | 49 | 250 | 6.0 | 16.0 | 0.00 | 0.00 | 0.00 | 70 | 1009.1 |
| 20260504040031 | 49 | 189 | 6.0 | 13.0 | 0.00 | 0.00 | 0.00 | 69 | 1008.9 |
| 20260504034531 | 49 | 198 | 5.0 | 16.0 | 0.00 | 0.00 | 0.00 | 68 | 1009.0 |
| 20260504033032 | 50 | 214 | 5.0 | 13.0 | 0.00 | 0.00 | 0.00 | 66 | 1009.0 |
| 20260504031530 | 50 | 150 | 5.0 | 10.0 | 0.00 | 0.00 | 0.00 | 64 | 1009.2 |
| 20260504030027 | 51 | 202 | 4.0 | 16.0 | 0.00 | 0.00 | 0.00 | 62 | 1009.4 |
| 20260504024526 | 52 | 184 | 7.0 | 15.0 | 0.00 | 0.00 | 0.00 | 58 | 1009.3 |
| 20260504023028 | 53 | 256 | 7.0 | 23.0 | 0.00 | 0.00 | 0.00 | 56 | 1009.4 |
| 20260504021528 | 53 | 230 | 9.0 | 21.0 | 0.00 | 0.00 | 0.00 | 56 | 1009.4 |
| 20260504020030 | 53 | 171 | 8.0 | 19.0 | 0.00 | 0.00 | 0.00 | 57 | 1009.3 |
| 20260504014540 | 52 | 190 | 8.0 | 20.0 | 0.00 | 0.00 | 0.00 | 60 | 1009.3 |
| 20260504013024 | 51 | 248 | 7.0 | 16.0 | 0.00 | 0.00 | 0.00 | 62 | 1009.3 |
| 20260504011522 | 51 | 231 | 7.0 | 16.0 | 0.00 | 0.00 | 0.00 | 61 | 1009.4 |
| 20260504010022 | 51 | 182 | 7.0 | 19.0 | 0.00 | 0.00 | 0.00 | 62 | 1009.3 |
| 20260504004522 | 51 | 238 | 6.0 | 17.0 | 0.00 | 0.00 | 0.00 | 63 | 1009.2 |
| 20260504003023 | 50 | 254 | 5.0 | 17.0 | 0.00 | 0.00 | 0.00 | 66 | 1009.2 |
| 20260504001522 | 50 | 242 | 5.0 | 15.0 | 0.00 | 0.00 | 0.00 | 69 | 1009.2 |
| 20260504000037 | 49 | 210 | 5.0 | 16.0 | 0.00 | 0.00 | 0.00 | 70 | 1009.3 |
| 20260503234518 | 49 | 229 | 6.0 | 14.0 | 0.00 | 0.00 | 0.00 | 71 | 1009.4 |
| 20260503233020 | 49 | 269 | 5.0 | 11.0 | 0.00 | 0.00 | 0.00 | 73 | 1009.6 |
| 20260503231516 | 49 | 221 | 4.0 | 11.0 | 0.00 | 0.00 | 0.00 | 73 | 1009.5 |
| 20260503230016 | 49 | 236 | 3.0 | 12.0 | 0.00 | 0.00 | 0.00 | 73 | 1009.7 |
| 20260503224514 | 50 | 236 | 4.0 | 12.0 | 0.00 | 0.00 | 0.00 | 72 | 1009.9 |
| 20260503223015 | 50 | 246 | 5.0 | 13.0 | 0.00 | 0.00 | 0.00 | 73 | 1010.0 |
| 20260503221513 | 49 | 243 | 8.0 | 17.0 | 0.00 | 0.00 | 0.00 | 73 | 1010.1 |
| 20260503220019 | 49 | 238 | 7.0 | 18.0 | 0.00 | 0.00 | 0.00 | 73 | 1010.1 |
| 20260503214522 | 49 | 200 | 6.0 | 20.0 | 0.00 | 0.00 | 0.00 | 72 | 1010.2 |
| 20260503213011 | 50 | 196 | 8.0 | 23.0 | 0.00 | 0.00 | 0.00 | 70 | 1009.8 |
| 20260503211512 | 50 | 232 | 11.0 | 24.0 | 0.00 | 0.00 | 0.00 | 69 | 1009.6 |
| 20260503210024 | 51 | 218 | 8.0 | 23.0 | 0.00 | 0.00 | 0.00 | 69 | 1009.7 |
| 20260503204510 | 50 | 253 | 7.0 | 20.0 | 0.00 | 0.00 | 0.00 | 69 | 1009.9 |
| 20260503203008 | 50 | 200 | 5.0 | 18.0 | 0.00 | 0.00 | 0.00 | 70 | 1009.8 |
| 20260503201503 | 50 | 248 | 7.0 | 17.0 | 0.00 | 0.00 | 0.00 | 68 | 1010.2 |
| 20260503200002 | 51 | 207 | 4.0 | 17.0 | 0.00 | 0.00 | 0.00 | 66 | 1010.2 |